STARLINK-34288, 64673

Orbit data source: Space-Track

STARLINK-34288, 64673 is a payload satellite owned by SpaceX/Seattle (US) in LEO that was launched on Sat, 28 Jun 2025 UTC via an FALCON 9 launch vehicle from the Air Force Eastern Test Range (AFETR). Payload-class satellites include a variety of spacecraft equipped with specific instruments for various scientific and technological missions. These include communications satellites like Starlink; space stations such as the ISS; scientific satellites like the Hubble; Earth observation satellites from companies like Planet Labs, Umbra, and HawkEye 360; GPS; miniature CubeSats for education and research; and military/defense satellites.

Loading next visibility...
Identifier
64673, 2025-139K
Orbit
LEO
Country
Flag of USUS
Related business
Manufacturer
SpaceX/Seattle
Mission
Operational Commercial Communications
Bus & Motor
STARLINK V2MO, Unknown motor
Mass
575 kg wet, ~530 kg dry
Launch date (UTC)
2025-06-28 (1 year ago)
Launch vehicle
FALCON 9
Launch site
Air Force Eastern Test Range (AFETR)
Object type
Payload
Rocket body
Debris
Shape & HBR
Box + 2 Pan, 17.7 m
Radar Cross Section
36.964 m², Large (>1 m²)

Expand to show TLE details & history
Last TLE update: 22 hours ago

TLE from 22 hours ago
0 STARLINK-34288
1 64673U 25139K   26170.94318823  .00014306  00000-0  43371-3 0  9995
2 64673  53.1597  10.3801 0000770  97.8153 262.2937 15.34401584 55969
Epoch: 2026-06-19T22:38Z
TLE epoch observation values (Epoch: 2026-06-19T22:38:11.463Z)
Latitude
-0°
Longitude
122.66742°
Altitude
463.671 km
Speed
7.636 km/s
True Right ascension
00h 41m 31s
True Declination
0° 00' 00"
Sunlit
Object was in daylight at epoch
Visualization orbit readout
Latitude
Unknown
Longitude
Unknown
Altitude
Unknown
Speed
Unknown
Apparent Right ascension
Unknown
Apparent Declination
Unknown
Sunlit
N/A
Visualization observer readout
Local Sidereal Time
07:18:53
Azimuth
Unknown
Elevation
Unknown
Doppler factor
Unknown
Orbital elements
Apogee altitude
463.482 km
Perigee altitude
462.429 km
Semi-major axis
6,841.092 km
Eccentricity
0.00008
Inclination
53.1597°
RAAN
10.3801°
Arg. of periapsis
97.8153°
True anomaly
262.28496°
Mean anomaly
262.2937°
Eccentric anomaly
262.28933°
Mean motion
3.83579 °/min
Orbital period
93.85 mins
BSTAR
0.00043371
Loading maneuver chart data...
Computing Atmospheric mass density...
Loading historical data...
Loading historical data...
Loading historical data...
Loading historical data...
Loading historical data...
Loading historical data...
Loading historical data...

Documentation

Showing up to 5 results
|